CW4115 Weather Reports


time (UTC)temp
F
wind
direction
speed
knots
gust
knots
rain 1hr
in
rain 24hr
in
rain mn
in
humidity
%
barometer
mb
20260503193334 63 169 2.6 7.0 0.00 0.00 0.00 58 1010.8
20260503190326 63 185 2.6 6.1 0.00 0.00 0.00 60 1010.9
20260503183342 61 171 2.6 6.1 0.00 0.00 0.00 64 1011.0
20260503180330 60 271 0.9 4.3 0.00 0.00 0.00 69 1011.1
20260503173334 58 244 3.5 7.8 0.00 0.00 0.00 72 1011.0
20260503170326 60 222 1.7 5.2 0.00 0.00 0.00 71 1010.9
20260503150330 57 360 2.6 4.3 0.00 0.00 0.00 74 1010.4
20260503130325 56 360 4.3 5.2 0.00 0.00 0.00 75 1008.9
20260503110339 56 360 0.0 0.9 0.00 0.00 0.00 76 1009.1
20260503090317 56 269 0.0 1.7 0.00 0.00 0.00 76 1009.4
20260503080357 56 360 0.9 1.7 0.00 0.00 0.00 76 1009.8
20260503070344 57 360 0.9 2.6 0.00 0.00 0.00 76 1009.9
20260503053332 57 360 1.7 6.1 0.00 0.00 0.00 75 1010.4
20260503050354 57 360 2.6 7.0 0.00 0.00 0.00 75 1010.3
20260503043334 57 360 1.7 6.1 0.00 0.00 0.00 74 1010.0
20260503040357 57 360 1.7 6.1 0.00 0.00 0.00 74 1009.9
20260503033335 58 360 3.5 8.7 0.00 0.00 0.00 73 1009.5
20260503030333 58 360 1.7 7.0 0.00 0.00 0.00 72 1009.3
20260503023417 59 360 3.5 7.0 0.00 0.00 0.00 72 1008.9
20260503020409 60 360 5.2 8.7 0.00 0.00 0.00 71 1008.9
20260503013351 61 339 3.5 8.7 0.00 0.00 0.00 71 1009.0
20260503010346 62 5 4.3 13.0 0.00 0.00 0.00 71 1008.9
20260503003356 63 315 2.6 9.6 0.00 0.00 0.00 69 1009.1
20260503000335 64 346 3.5 11.3 0.00 0.00 0.00 67 1009.1
20260502233335 65 344 5.2 11.3 0.00 0.00 0.00 66 1009.4
20260502230336 66 334 5.2 10.4 0.00 0.00 0.00 64 1009.6
20260502223338 67 360 5.2 10.4 0.00 0.00 0.00 64 1009.9
20260502220334 68 5 3.5 7.0 0.00 0.00 0.00 63 1010.4
20260502213340 68 355 5.2 7.0 0.00 0.00 0.00 64 1010.4
20260502210350 68 19 4.3 9.6 0.00 0.00 0.00 64 1010.8
20260502203350 67 342 2.6 7.0 0.00 0.00 0.00 65 1011.0
20260502200343 66 297 0.0 6.1 0.00 0.00 0.00 67 1011.5